Location: Unspecified
(0.0000°N, 0.0000°E)
Time: 21:30:03
(UTC+00:00)

TITAN 3C TRANSTAGE DEB - Visible Passes

Search period start: 09 June 2026 00:00
Search period end: 19 June 2026 00:00
Orbit: 767 x 31108 km, 26.5° (Epoch: 9 June)

Date Brightness Start Highest point End Pass type
(mag) Time Alt. Az. Time Alt. Az. Time Alt. Az.
9 Jun ? 19:42:56 10° WSW 21:57:34 48° SW 04:07:02 10° NE visible
10 Jun ? 13:41:25 10° NW 21:24:57 22° ESE 21:50:35 10° E visible
11 Jun ? 17:33:28 10° W 18:23:49 59° SSW 02:05:34 10° ENE visible
12 Jun ? 22:03:24 10° WSW 23:49:59 24° WSW 05:54:45 10° NNE visible
13 Jun ? 15:30:19 10° WNW 23:12:06 53° ESE 23:59:50 10° E visible
14 Jun ? 19:32:19 10° WSW 21:53:26 47° SW 03:55:33 10° NE visible
15 Jun ? 13:30:00 10° NW 21:19:07 21° ESE 21:40:57 10° E visible
16 Jun ? 17:22:35 10° W 18:18:26 58° S 01:54:26 10° ENE visible
17 Jun ? 21:54:18 10° WSW 23:40:46 23° WSW 05:43:31 10° NNE visible
18 Jun ? 15:19:23 10° WNW 23:05:59 54° ESE 23:49:15 10° E visible
